Presure
233 251 253 75 93 96 165 185 115 98 197 89 96 110 120 122 114 111 110 117 140 93 115 103 186 106 110 111 190 186 187 192 191 187 172 185 182 180 183 191 188 185 184
251 226 252 99 172 193 129 124 109 110 99 106 90 120 119 110 97 86 91 111 113 108 98 102 109 111 140 192 200 176 193 173 185 178 170 175 188 181 169 178 175 173 188
269 251 236 252 211 94 141 99 104 78 115 117 113 110 106 81 89 112 96 111 109 110 221 110 109 111 193 187 161 179 190 176 181 178 185 183 181 182 178 185 188 179 181
262 265 228 241 254 201 197 135 117 170 171 108 108 104 84 114 114 109 112 104 171 126 111 194 112 164 194 180 182 190 182 182 181 183 181 186 183 169 163 174 178 176 189
259 260 228 222 94 163 202 196 191 92 182 179 125 114 114 108 108 109 108 108 123 210 213 199 192 193 180 190 188 188 186 181 188 183 182 181 180 173 175 164 151 180 170
240 256 259 223 225 247 224 204 194 190 186 183 172 178 110 114 110 111 109 162 209 204 198 196 182 184 180 191 185 192 180 182 184 175 181 181 180 178 175 178 191 184 203
239 242 257 224 214 230 238 209 207 191 172 178 178 175 175 200 210 220 104 206 208 197 196 184 191 183 190 185 193 187 191 175 182 182 178 172 184 180 188 195 208 235 268
238 235 248 264 214 108 109 226 200 194 167 180 171 172 184 197 213 213 212 210 202 195 191 186 192 193 200 197 191 177 189 193 191 180 180 184 188 187 199 217 242 267 207
218 240 246 257 221 203 229 230 211 202 184 181 164 166 189 180 210 199 210 195 201 188 182 184 196 192 182 187 175 190 188 183 172 181 190 183 198 197 203 139 258 235 277
235 220 247 251 264 215 209 228 217 205 193 181 170 167 166 144 182 208 209 209 203 192 190 192 192 180 165 186 191 183 177 176 185 189 188 194 202 209 236 222 257 265 272
198 236 241 248 264 217 205 228 220 208 193 181 173 168 170 171 176 210 209 206 201 197 192 193 185 188 192 192 184 176 179 189 185 199 189 200 213 235 156 248 286 271 237
231 92 238 248 230 159 209 225 222 207 196 188 178 181 163 171 179 206 212 208 206 199 197 180 186 189 180 178 172 189 189 158 202 137 190 177 223 217 268 270 248 221 167
208 227 233 248 264 252 213 222 216 208 198 191 173 172 167 175 182 201 214 205 205 186 192 196 183 174 177 175 191 141 193 198 126 205 214 219 227 268 251 201 218 210 221
164 243 246 248 268 246 213 222 217 204 192 188 172 174 171 183 199 214 202 187 179 189 184 177 173 180 186 194 166 200 193 161 208 223 207 251 276 254 198 189 201 225 240
238 247 175 256 273 232 205 225 215 201 189 188 172 174 186 183 192 196 189 171 185 180 177 174 181 191 175 189 201 178 197 205 228 213 273 272 235 167 186 214 230 244 267
244 257 259 264 288 218 216 221 207 184 184 190 181 181 184 187 189 178 185 182 180 173 183 184 165 190 182 200 189 204 210 261 219 273 257 217 213 204 222 235 244 271 331
258 268 217 158 226 213 222 215 192 188 190 182 181 170 175 181 184 166 183 183 180 184 151 192 190 186 191 194 168 221 249 246 269 241 161 196 185 227 235 250 280 316 343
282 225 289 224 223 202 216 194 190 186 178 182 181 174 178 181 183 188 183 182 188 189 190 193 199 183 200 209 255 224 275 259 183 180 191 214 223 239 260 309 312 401 509
277 262 217 223 224 214 189 191 179 174 186 178 173 163 183 185 183 174 188 185 192 184 200 191 167 208 222 247 278 271 231 164 181 199 215 226 238 296 308 328 444 510 469
228 202 223 223 215 191 185 174 174 172 179 177 169 174 171 173 186 187 189 187 199 194 178 207 215 260 226 276 244 222 126 183 193 214 228 250 303 307 387 472 506 493 418
155 224 224 216 197 182 179 176 169 176 174 163 169 173 180 188 188 189 185 196 153 194 174 210 237 285 261 226 217 179 182 215 215 229 265 298 320 420 465 496 517 409 387
222 222 206 181 186 175 172 173 178 171 170 175 179 186 189 191 183 199 158 176 142 151 248 268 267 189 218 179 186 210 213 218 228 288 295 318 444 461 494 487 407 383 383
222 188 185 187 175 169 172 139 180 180 178 133 187 191 181 198 188 177 206 142 150 216 273 240 215 215 197 163 216 204 215 246 286 292 314 464 454 410 481 405 372 370 362
179 187 177 173 179 179 180 182 180 183 189 189 188 197 186 181 201 134 142 218 281 248 221 216 193 200 211 214 203 207 288 286 288 394 467 446 386 491 402 366 357 343 319
178 178 173 173 180 181 182 185 188 183 192 194 193 204 158 230 148 140 230 252 223 200 203 194 159 212 210 209 232 285 290 293 448 466 434 407 475 400 367 360 342 321 306
180 181 183 183 183 187 184 190 193 191 201 206 208 244 235 132 141 237 185 213 204 197 197 208 214 216 216 276 298 286 291 360 459 419 494 457 389 364 351 347 318 305 304
Wind_Speed
72 69 71 29 39 40 64 68 48 44 58 33 37 49 50 47 42 41 44 49 53 47 57 51 68 57 60 65 56 62 54 53 53 56 59 55 60 64 66 67 70 70 72
67 72 70 47 73 79 58 50 47 49 44 48 39 51 49 45 44 44 45 50 54 54 52 55 60 62 61 56 56 66 55 69 57 64 71 70 63 64 73 72 75 75 81
57 67 72 68 79 39 59 40 47 31 54 57 52 49 47 37 47 49 49 53 55 60 53 62 62 67 54 59 66 67 58 68 63 68 62 63 69 71 81 82 81 80 85
60 60 75 71 67 79 74 65 61 58 57 51 50 50 42 52 53 52 53 52 50 59 63 57 68 60 57 62 64 64 67 66 66 63 65 65 67 73 80 85 94 96 102
57 59 69 73 41 51 78 79 73 43 59 57 62 53 53 50 53 55 54 57 72 52 52 53 56 58 63 63 66 68 67 68 67 67 71 73 73 76 72 79 87 97 98
55 55 61 74 69 64 71 74 73 65 62 60 62 60 54 59 57 61 58 51 51 51 53 56 61 62 65 66 69 66 70 71 72 75 75 76 78 82 85 82 91 91 101
55 57 57 74 71 67 66 73 68 67 63 61 62 63 63 51 52 50 53 52 51 53 56 60 62 64 66 68 67 69 70 77 75 77 80 83 82 84 89 93 100 102 89
56 61 58 60 74 45 45 67 64 68 59 62 63 64 59 52 52 52 53 53 53 57 59 62 63 65 67 69 70 74 75 77 78 80 82 84 88 91 99 107 112 97 93
56 61 60 57 73 71 66 65 65 64 66 62 64 62 55 60 54 55 55 56 57 60 65 64 65 65 66 70 74 76 77 77 80 83 88 88 98 99 102 67 109 107 96
60 54 59 59 61 72 67 64 62 62 63 62 65 63 60 58 58 58 57 57 60 62 63 65 66 68 74 74 76 77 79 83 85 88 92 96 103 108 118 108 111 108 104
51 60 62 63 59 73 67 62 61 61 62 62 67 63 62 61 61 59 58 61 62 63 64 67 68 70 74 75 76 79 83 86 88 97 93 102 112 120 77 104 105 104 103
61 21 62 62 54 51 64 61 60 59 59 60 63 58 60 62 61 57 61 61 63 65 67 67 68 72 73 76 80 83 86 72 98 67 95 91 100 114 110 105 103 104 88
59 61 59 60 60 66 66 58 57 58 57 55 63 63 62 63 60 58 61 60 64 64 67 70 70 76 78 81 83 64 92 96 65 108 114 113 114 108 101 96 106 103 112
39 58 58 60 60 66 62 56 57 55 52 53 62 63 63 58 56 58 59 61 65 65 68 71 76 78 82 84 78 94 93 82 111 117 108 111 105 103 96 95 101 116 125
55 54 40 59 56 62 57 54 54 50 49 51 60 63 54 57 57 57 62 66 65 69 72 76 78 81 77 86 95 85 101 110 116 112 106 103 103 82 93 109 120 128 138
52 53 52 50 53 56 52 52 48 51 50 48 55 55 54 55 58 63 64 66 69 73 74 77 69 83 82 94 90 105 111 109 113 103 103 103 106 104 116 124 129 141 132
47 46 41 29 51 50 49 48 46 46 45 50 53 55 56 59 61 64 67 69 72 74 57 80 82 85 88 96 78 110 108 107 102 101 79 98 100 118 122 132 135 129 127
31 29 34 46 47 39 46 43 43 43 50 49 51 56 57 61 62 65 68 71 73 76 79 84 89 84 99 105 105 108 98 99 83 92 97 113 116 127 134 124 124 100 55
23 36 42 45 47 46 41 37 45 47 43 50 54 53 59 62 65 69 69 72 75 76 86 83 75 101 105 103 94 93 96 79 93 105 117 122 127 126 124 127 83 50 46
39 37 42 44 42 37 40 45 42 46 46 51 55 59 62 66 67 69 71 74 81 82 76 97 100 97 102 88 91 96 70 95 105 116 124 131 125 126 113 71 50 39 39
30 38 41 39 34 39 41 44 45 48 50 51 58 62 65 66 68 70 73 79 59 85 72 80 97 85 87 90 95 89 96 113 114 124 128 122 130 107 71 50 36 38 34
36 37 34 34 35 39 44 47 47 51 55 59 61 63 65 68 68 76 57 71 54 59 91 86 81 70 92 82 92 107 112 117 123 122 123 130 90 70 48 40 35 34 29
36 30 32 33 40 41 46 30 51 54 57 41 63 65 64 74 70 68 83 53 59 91 75 79 86 91 94 81 107 107 115 121 120 121 130 75 69 68 39 30 30 28 19
31 31 35 39 41 44 47 50 53 56 59 62 64 70 66 67 76 48 53 87 72 73 78 84 86 93 101 106 106 108 116 115 117 117 71 68 70 34 28 26 26 19 29
31 34 36 40 44 47 50 53 56 56 62 65 65 73 57 78 53 53 68 68 72 75 82 87 76 98 103 110 110 112 112 119 83 69 67 62 31 27 24 23 21 28 33
35 38 41 44 47 50 51 56 60 59 65 69 72 72 74 48 54 63 64 74 78 83 86 93 97 103 108 114 116 109 118 113 70 67 37 30 26 23 26 25 29 31 32
Wind_Direction
240 238 237 242 246 251 252 254 253 253 258 253 265 268 264 268 275 283 286 287 276 285 290 293 280 299 302 301 282 280 287 290 292 291 292 292 292 292 295 298 294 290 289
238 238 236 242 243 246 250 253 254 257 261 263 266 264 265 273 274 274 280 289 290 289 288 290 297 300 294 276 280 286 287 289 288 291 292 292 296 290 288 289 290 289 294
239 236 236 236 236 244 247 253 258 253 262 264 265 269 269 271 273 281 279 288 289 290 272 296 297 299 275 279 289 287 285 288 289 291 296 297 297 299 295 296 296 292 292
239 235 236 236 235 238 238 252 256 249 252 264 265 265 266 277 279 282 287 284 278 289 294 277 296 284 275 283 283 284 283 287 288 290 292 291 290 289 294 298 299 299 299
238 238 234 235 242 237 239 242 248 258 253 256 267 269 272 274 279 282 283 286 287 270 271 276 277 278 282 283 281 284 284 287 290 289 289 288 287 286 286 286 296 294 294
238 236 234 234 233 234 235 238 244 248 250 252 259 261 269 274 277 280 283 275 269 272 274 275 279 279 283 282 284 286 287 288 289 288 288 289 290 291 291 290 292 290 295
231 236 234 231 233 233 232 236 237 243 251 252 256 261 266 269 274 269 281 269 269 272 272 276 277 282 284 286 286 286 288 287 288 288 288 288 292 290 293 295 297 299 299
230 233 235 232 230 251 254 235 237 240 252 250 258 262 263 267 273 271 269 269 270 271 274 278 279 282 284 285 286 289 288 289 289 288 291 293 296 295 298 301 302 302 295
232 232 235 233 227 231 231 233 235 237 245 248 261 266 261 268 272 274 271 275 271 276 280 283 281 284 287 287 289 288 289 289 289 292 297 296 301 300 302 293 303 301 301
235 236 232 230 226 228 231 230 233 237 240 247 258 265 271 272 272 272 273 271 271 276 280 283 283 287 290 288 289 290 290 292 296 298 300 300 304 305 305 302 305 304 304
238 229 228 231 228 224 228 229 232 235 239 246 256 265 269 273 273 272 274 272 275 278 281 282 286 289 289 290 291 291 294 298 298 302 299 304 306 305 299 305 306 305 299
228 252 231 231 234 239 228 227 229 234 239 244 252 256 273 273 273 277 275 276 277 278 282 287 289 290 290 291 291 297 298 298 303 299 300 304 305 303 306 306 303 300 299
230 230 231 232 231 221 226 226 228 232 238 245 255 262 271 271 274 278 277 279 278 285 286 288 289 289 291 292 298 297 302 303 301 306 305 304 304 306 305 301 302 304 304
238 232 230 230 228 215 223 224 227 234 241 247 257 262 270 269 278 278 279 280 284 284 286 287 289 292 295 299 298 303 302 300 306 305 304 305 306 305 300 303 303 305 305
228 231 241 226 226 214 224 222 227 235 242 248 259 265 266 271 277 280 280 284 284 286 287 289 292 296 298 300 303 301 305 305 305 303 306 306 303 306 304 307 306 306 307
226 227 227 225 224 214 219 221 228 241 245 251 257 262 268 274 277 279 282 284 286 287 290 293 298 298 297 303 301 305 304 305 303 306 306 304 305 307 307 308 310 309 310
223 225 228 234 206 216 216 222 234 242 247 253 259 268 273 276 278 283 282 285 288 291 296 297 298 298 301 303 301 304 304 304 305 305 303 305 306 308 309 309 310 310 312
208 219 211 201 207 218 217 230 237 245 255 259 265 271 275 279 283 284 286 289 292 295 296 299 301 298 303 302 304 304 305 306 304 304 305 307 309 309 309 311 311 313 312
209 202 200 203 206 213 233 237 247 257 261 265 270 279 279 281 283 286 289 291 295 295 299 300 301 302 303 304 306 305 305 306 303 308 308 309 310 311 311 314 316 315 311
192 205 203 206 211 226 236 250 257 264 267 270 276 278 282 283 285 289 293 293 298 300 298 302 302 303 304 305 305 304 309 306 307 307 309 310 313 312 315 317 318 315 313
234 204 206 211 223 236 244 252 264 265 271 280 279 279 282 286 289 291 293 299 297 301 301 302 303 304 305 304 305 304 310 306 308 309 311 313 316 316 317 317 320 312 313
206 207 212 229 231 247 253 261 264 270 275 275 279 282 286 290 289 297 296 298 300 302 302 304 305 305 303 310 305 308 307 309 310 313 314 317 317 317 317 317 313 313 314
210 218 226 232 245 258 261 271 267 271 276 292 283 287 286 294 294 297 299 302 303 302 304 304 302 304 311 314 310 309 310 312 314 316 317 317 318 317 317 315 311 313 310
231 227 240 251 254 260 264 267 272 276 280 284 287 290 291 295 298 301 303 301 303 303 301 302 310 311 310 311 309 314 316 315 315 317 318 317 316 319 313 307 309 308 309
246 249 259 264 261 264 269 273 276 280 284 287 290 294 298 296 298 303 302 302 299 301 306 311 316 311 310 307 314 315 316 319 320 320 318 317 321 318 310 303 290 302 310
252 256 257 261 265 269 273 276 279 284 288 292 295 292 295 300 303 303 302 299 304 308 311 309 310 311 307 318 320 319 320 320 321 320 325 322 320 311 306 301 308 309 307